カタログに戻る

OPS 4682 DEB

運用中PO
NORAD 38429·DEBRIS·🇺🇸 United States

打ち上げ Apr 3, 1965 から Vandenberg Space Force Base

Loading…

次のパス (今後24時間)

TLE

最新Source: Space-Track

元期: Sep 14, 2026, 13:49 UTC

1 38429U 65027EJ  26257.57631185  .00000186  00000-0  60805-3 0  9991
2 38429  90.2409   2.6638 0043660 157.9048 202.3968 12.98014998601019

AllMySatでOPS 4682 DEBをリアルタイム追跡

Download on the App Store